Location: Munderkingen
(48.2395°N, 9.6433°E)
Time: 06:42:42
(UTC+01:00)

ISS - Pass Details

Date: 17 November 2017
Orbit: 402 x 407 km, 51.6° (Epoch: 22 November)

Event Time Altitude Azimuth Distance (km) Brightness Sun altitude
Exits shadow 06:21:01 10° 238° (WSW) 1,462 -1.4 -11.7°
Reaches altitude 10° 06:21:10 10° 235° (SW) 1,451 -1.4 -11.7°
Maximum altitude 06:21:38 10° 227° (SW) 1,437 -1.3 -11.6°
Drops below altitude 10° 06:22:06 10° 218° (SW) 1,450 -1.2 -11.5°
Sets 06:25:52 0° 173° (S) 2,302 0.3 -10.9°
